TimeEST,TemperatureF,Dew PointF,Humidity,Sea Level PressureIn,VisibilityMPH,Wind Direction,Wind SpeedMPH,Gust SpeedMPH,PrecipitationIn,Events,Conditions,WindDirDegrees,DateUTC
12:20 AM,75.2,73.4,94,30.03,4.0,East,19.6,25.3,0.03,Rain,Heavy Rain,90,2013-11-09 05:20:00
12:53 AM,77.0,72.0,84,30.03,10.0,ENE,15.0,23.0,0.04,,Overcast,60,2013-11-09 05:53:00
1:03 AM,75.2,73.4,94,30.03,5.0,East,19.6,31.1,0.02,Rain,Rain,80,2013-11-09 06:03:00
1:12 AM,75.2,73.4,94,30.03,3.0,ENE,20.7,28.8,0.05,Rain,Light Rain,70,2013-11-09 06:12:00
1:53 AM,75.0,75.0,100,30.03,4.0,NE,11.5,-,0.12,Rain,Light Rain,50,2013-11-09 06:53:00
2:01 AM,75.2,75.2,100,30.02,10.0,NE,12.7,18.4,0.00,Rain,Light Rain,50,2013-11-09 07:01:00
2:14 AM,75.2,75.2,100,30.02,4.0,ENE,15.0,23.0,0.01,Rain,Rain,70,2013-11-09 07:14:00
2:25 AM,75.2,-9999,N/A,30.01,2.5,East,16.1,20.7,0.05,Rain,Rain,80,2013-11-09 07:25:00
2:42 AM,73.4,-9999,N/A,30.02,1.2,ENE,12.7,20.7,0.25,Rain,Heavy Rain,60,2013-11-09 07:42:00
2:53 AM,73.9,-9999,N/A,30.03,2.0,ENE,13.8,-,0.33,Rain,Heavy Rain,70,2013-11-09 07:53:00
3:13 AM,73.4,-9999,N/A,30.02,6.0,NE,10.4,-,0.03,Rain,Light Rain,50,2013-11-09 08:13:00
3:32 AM,75.2,-9999,N/A,30.02,10.0,NE,12.7,-,0.03,,Overcast,50,2013-11-09 08:32:00
3:39 AM,75.2,-9999,N/A,30.02,8.0,NE,11.5,-,0.03,Rain,Light Rain,50,2013-11-09 08:39:00
3:53 AM,75.0,-9999,N/A,30.02,10.0,NE,11.5,-,0.03,,Overcast,50,2013-11-09 08:53:00
4:01 AM,75.2,-9999,N/A,30.02,10.0,ENE,13.8,18.4,N/A,,Overcast,60,2013-11-09 09:01:00
4:24 AM,75.2,-9999,N/A,30.02,6.0,NE,12.7,19.6,0.02,Rain,Rain,50,2013-11-09 09:24:00
4:49 AM,75.2,-9999,N/A,30.02,10.0,NE,11.5,-,0.02,,Overcast,50,2013-11-09 09:49:00
4:53 AM,75.0,-9999,N/A,30.03,10.0,ENE,11.5,-,0.02,,Overcast,60,2013-11-09 09:53:00
5:53 AM,75.9,-9999,N/A,30.05,10.0,ENE,17.3,26.5,0.00,Rain,Light Rain,60,2013-11-09 10:53:00
6:21 AM,75.2,-9999,N/A,30.05,10.0,ENE,16.1,-,0.01,,Mostly Cloudy,60,2013-11-09 11:21:00
6:53 AM,75.9,75.0,97,30.07,10.0,ENE,15.0,25.3,0.01,,Scattered Clouds,60,2013-11-09 11:53:00
7:53 AM,75.0,73.9,96,30.09,7.0,ENE,9.2,-,0.02,Rain,Light Rain,60,2013-11-09 12:53:00
8:53 AM,77.0,73.0,88,30.11,10.0,ENE,19.6,27.6,0.00,,Scattered Clouds,70,2013-11-09 13:53:00
9:25 AM,78.8,73.4,83,30.11,10.0,ENE,18.4,26.5,N/A,,Mostly Cloudy,70,2013-11-09 14:25:00
9:53 AM,78.1,73.0,84,30.12,10.0,NE,15.0,24.2,N/A,,Overcast,50,2013-11-09 14:53:00
10:53 AM,79.0,73.0,82,30.11,10.0,ENE,17.3,26.5,0.00,,Mostly Cloudy,70,2013-11-09 15:53:00
11:53 AM,81.0,73.0,77,30.10,10.0,East,20.7,27.6,0.00,,Scattered Clouds,80,2013-11-09 16:53:00
12:53 PM,78.1,73.0,84,30.08,6.0,ENE,12.7,26.5,N/A,,Haze,70,2013-11-09 17:53:00
1:00 PM,75.2,73.4,94,30.07,8.0,NE,8.1,-,0.00,Rain,Light Rain,50,2013-11-09 18:00:00
1:53 PM,78.1,73.0,84,30.07,10.0,ENE,13.8,27.6,0.01,,Scattered Clouds,60,2013-11-09 18:53:00
2:53 PM,77.0,73.0,88,30.07,10.0,NE,17.3,26.5,N/A,,Mostly Cloudy,50,2013-11-09 19:53:00
3:53 PM,79.0,71.1,77,30.06,10.0,ENE,13.8,-,N/A,,Mostly Cloudy,60,2013-11-09 20:53:00
4:53 PM,78.1,71.1,79,30.07,10.0,ENE,12.7,20.7,N/A,,Mostly Cloudy,60,2013-11-09 21:53:00
5:53 PM,78.1,71.1,79,30.08,10.0,ENE,18.4,23.0,N/A,,Mostly Cloudy,60,2013-11-09 22:53:00
6:53 PM,78.1,71.1,79,30.09,10.0,NE,15.0,25.3,0.00,,Scattered Clouds,50,2013-11-09 23:53:00
7:44 PM,75.2,71.6,89,30.10,5.0,NE,12.7,23.0,0.01,Rain,Light Rain,50,2013-11-10 00:44:00
7:53 PM,75.0,72.0,90,30.11,3.0,NE,13.8,-,0.01,Rain,Light Rain,50,2013-11-10 00:53:00
8:20 PM,75.2,71.6,89,30.10,7.0,NE,13.8,20.7,0.01,Rain,Light Rain,50,2013-11-10 01:20:00
8:53 PM,75.9,72.0,87,30.11,10.0,NE,12.7,-,0.02,,Overcast,50,2013-11-10 01:53:00
9:53 PM,77.0,71.1,82,30.11,10.0,NE,16.1,21.9,N/A,,Scattered Clouds,50,2013-11-10 02:53:00
10:00 PM,77.0,71.6,83,30.11,10.0,NE,10.4,21.9,N/A,,Overcast,50,2013-11-10 03:00:00
10:29 PM,77.0,71.6,83,30.10,10.0,ENE,15.0,-,N/A,,Overcast,70,2013-11-10 03:29:00
10:53 PM,78.1,71.1,79,30.10,10.0,ENE,15.0,26.5,N/A,,Overcast,70,2013-11-10 03:53:00
11:53 PM,78.1,72.0,81,30.09,10.0,ENE,12.7,17.3,N/A,,Mostly Cloudy,60,2013-11-10 04:53:00